| time (UTC) | temp C | wind direction | speed KPH | gust KPH | rain 1hr cm | rain 24hr cm | rain mn cm | humidity % | barometer mb |
| 20260503032744 | 10 | 270 | 0.0 | 0.0 | 0.00 | 1.70 | 0.00 | 99 | 1014.2 |
| 20260503031733 | 9 | 270 | 0.0 | 0.0 | 0.00 | 1.70 | 0.00 | 99 | 1014.3 |
| 20260503030726 | 10 | 270 | 0.0 | 0.0 | 0.00 | 1.70 | 0.00 | 99 | 1014.2 |
| 20260503025719 | 10 | 270 | 0.0 | 0.0 | 0.00 | 1.70 | 0.00 | 99 | 1014.2 |
| 20260503024713 | 10 | 270 | 0.0 | 0.0 | 0.00 | 1.70 | 0.00 | 99 | 1014.2 |
| 20260503023705 | 9 | 270 | 0.0 | 0.0 | 0.00 | 1.70 | 0.00 | 99 | 1014.3 |
| 20260503022658 | 9 | 270 | 0.0 | 0.0 | 0.00 | 1.70 | 0.00 | 99 | 1014.4 |
| 20260503021651 | 10 | 270 | 0.0 | 0.0 | 0.00 | 1.70 | 0.00 | 99 | 1014.5 |
| 20260503015637 | 9 | 270 | 0.0 | 0.0 | 0.00 | 1.70 | 0.00 | 99 | 1014.5 |
| 20260503014630 | 9 | 270 | 0.0 | 0.0 | 0.00 | 1.70 | 0.00 | 99 | 1014.5 |
| 20260503013624 | 9 | 270 | 0.0 | 0.0 | 0.00 | 1.70 | 0.00 | 99 | 1014.7 |
| 20260503012617 | 9 | 270 | 0.0 | 0.0 | 0.00 | 1.70 | 0.00 | 99 | 1014.7 |
| 20260503011609 | 9 | 270 | 0.0 | 0.0 | 0.00 | 1.70 | 0.00 | 99 | 1014.9 |
| 20260503010604 | 9 | 270 | 0.0 | 0.0 | 0.00 | 1.70 | 0.00 | 99 | 1015.0 |
| 20260503004548 | 9 | 270 | 0.0 | 0.0 | 0.00 | 1.70 | 0.00 | 99 | 1015.2 |
| 20260503003544 | 9 | 270 | 0.0 | 0.0 | 0.00 | 1.70 | 0.00 | 99 | 1015.2 |
| 20260503002534 | 9 | 270 | 0.0 | 0.0 | 0.00 | 1.70 | 0.00 | 99 | 1015.4 |
| 20260503001527 | 9 | 270 | 0.0 | 0.0 | 0.00 | 1.70 | 0.00 | 99 | 1015.6 |
| 20260502235513 | 9 | 270 | 0.0 | 0.0 | 0.00 | 1.70 | 0.00 | 99 | 1015.7 |
| 20260502234506 | 10 | 270 | 0.0 | 0.0 | 0.00 | 1.70 | 0.00 | 99 | 1015.9 |
| 20260502233503 | 10 | 270 | 0.0 | 0.0 | 0.00 | 1.70 | 0.00 | 99 | 1015.9 |
| 20260502231445 | 10 | 270 | 0.0 | 0.0 | 0.00 | 1.70 | 0.00 | 99 | 1015.8 |
| 20260502230438 | 10 | 270 | 0.0 | 0.0 | 0.00 | 1.70 | 0.00 | 99 | 1015.8 |
| 20260502225431 | 10 | 270 | 0.0 | 0.0 | 0.00 | 1.70 | 0.00 | 99 | 1015.8 |
| 20260502224424 | 10 | 270 | 0.0 | 0.0 | 0.00 | 1.70 | 0.00 | 99 | 1015.7 |
| 20260502223417 | 10 | 270 | 0.0 | 0.0 | 0.00 | 1.70 | 0.00 | 99 | 1015.6 |
| 20260502222410 | 10 | 270 | 0.0 | 0.0 | 0.00 | 1.70 | 0.00 | 99 | 1015.8 |
| 20260502221403 | 10 | 270 | 0.0 | 0.0 | 0.00 | 1.70 | 0.00 | 99 | 1015.6 |
| 20260502220356 | 10 | 270 | 0.0 | 0.0 | 0.00 | 1.70 | 0.00 | 99 | 1015.6 |
| 20260502215349 | 10 | 270 | 0.0 | 0.0 | 0.00 | 1.70 | 1.70 | 99 | 1015.8 |
| 20260502213337 | 10 | 270 | 0.0 | 0.0 | 0.00 | 1.70 | 1.70 | 99 | 1015.8 |
| 20260502212329 | 10 | 270 | 0.0 | 0.0 | 0.00 | 1.70 | 1.70 | 99 | 1015.9 |
| 20260502211323 | 10 | 270 | 0.0 | 0.0 | 0.00 | 1.70 | 1.70 | 99 | 1016.0 |
| 20260502210317 | 10 | 270 | 0.0 | 0.0 | 0.00 | 1.70 | 1.70 | 99 | 1015.9 |
| 20260502205309 | 10 | 270 | 0.0 | 0.0 | 0.00 | 1.70 | 1.70 | 99 | 1016.0 |
| 20260502204303 | 10 | 270 | 0.0 | 0.0 | 0.00 | 1.70 | 1.70 | 99 | 1015.8 |
| 20260502203255 | 10 | 270 | 0.0 | 0.0 | 0.00 | 1.70 | 1.70 | 99 | 1015.6 |
| 20260502202248 | 10 | 270 | 0.0 | 0.0 | 0.00 | 1.70 | 1.70 | 99 | 1015.5 |
| 20260502201243 | 10 | 270 | 0.0 | 0.0 | 0.00 | 1.70 | 1.70 | 99 | 1015.3 |
| 20260502200235 | 10 | 270 | 0.0 | 0.0 | 0.00 | 1.70 | 1.70 | 99 | 1015.0 |
| 20260502195228 | 10 | 270 | 0.0 | 0.0 | 0.00 | 1.70 | 1.70 | 99 | 1015.1 |
| 20260502194223 | 10 | 270 | 0.0 | 0.0 | 0.00 | 1.70 | 1.70 | 99 | 1014.8 |
| 20260502193215 | 10 | 270 | 0.0 | 0.0 | 0.00 | 1.70 | 1.70 | 99 | 1015.1 |
| 20260502192208 | 11 | 270 | 0.0 | 0.0 | 0.00 | 1.70 | 1.70 | 99 | 1015.0 |
| 20260502191203 | 11 | 270 | 0.0 | 0.0 | 0.05 | 1.70 | 1.70 | 99 | 1014.8 |
| 20260502190155 | 11 | 270 | 0.0 | 0.0 | 0.05 | 1.70 | 1.70 | 99 | 1014.3 |
| 20260502185149 | 11 | 270 | 0.0 | 0.0 | 0.05 | 1.70 | 1.70 | 99 | 1014.1 |
| 20260502182129 | 11 | 248 | 0.0 | 6.4 | 0.05 | 1.70 | 1.70 | 99 | 1014.2 |
| 20260502181223 | 11 | 225 | 0.0 | 20.9 | 0.00 | 1.65 | 1.65 | 96 | 1014.7 |
| 20260502180223 | 12 | 248 | 0.0 | 4.8 | 0.00 | 1.65 | 1.65 | 96 | 1014.6 |
| 20260502170135 | 13 | 270 | 0.0 | 33.8 | 0.05 | 1.65 | 1.65 | 99 | 1015.0 |
| 20260502164124 | 12 | 270 | 0.0 | 0.0 | 0.05 | 1.65 | 1.65 | 99 | 1015.1 |
| 20260502163224 | 13 | 270 | 0.0 | 0.0 | 0.00 | 1.60 | 1.60 | 99 | 1015.1 |
| 20260502162215 | 12 | 180 | 0.0 | 0.0 | 0.25 | 1.60 | 1.60 | 99 | 1015.1 |
| 20260502161208 | 11 | 180 | 0.0 | 0.0 | 0.36 | 1.60 | 1.60 | 99 | 1015.3 |
| 20260502160212 | 11 | 180 | 1.6 | 11.3 | 0.36 | 1.60 | 1.60 | 99 | 1015.5 |
| 20260502152240 | 11 | 270 | 12.9 | 33.8 | 0.30 | 1.55 | 1.55 | 99 | 1016.2 |
| 20260502151339 | 13 | 225 | 3.2 | 16.1 | 0.10 | 1.35 | 1.35 | 92 | 1016.0 |
| 20260502150438 | 13 | 225 | 0.0 | 14.5 | 0.00 | 1.24 | 1.24 | 89 | 1015.5 |
| 20260502130420 | 16 | 180 | 3.2 | 14.5 | 0.10 | 1.19 | 1.19 | 99 | 1016.7 |
| 20260502123357 | 11 | 113 | 4.8 | 9.7 | 0.20 | 1.19 | 1.19 | 99 | 1016.7 |
| 20260502122457 | 12 | 135 | 0.0 | 0.0 | 0.20 | 1.14 | 1.14 | 99 | 1018.1 |
| 20260502121556 | 12 | 113 | 0.0 | 0.0 | 0.20 | 1.09 | 1.09 | 99 | 1018.2 |
| 20260502120549 | 11 | 68 | 0.0 | 0.0 | 0.25 | 1.09 | 1.09 | 99 | 1018.1 |
| 20260502115543 | 11 | 90 | 0.0 | 0.0 | 0.30 | 1.09 | 1.09 | 99 | 1018.0 |
| 20260502113635 | 10 | 225 | 0.0 | 0.0 | 0.30 | 1.04 | 1.04 | 99 | 1019.1 |
| 20260502112732 | 11 | 225 | 0.0 | 4.8 | 0.25 | 0.99 | 0.99 | 99 | 1019.3 |
| 20260502111840 | 11 | 225 | 0.0 | 3.2 | 0.20 | 0.94 | 0.94 | 99 | 1019.4 |
| 20260502110932 | 11 | 225 | 0.0 | 0.0 | 0.15 | 0.89 | 0.89 | 99 | 1019.5 |
| 20260502110031 | 11 | 225 | 0.0 | 0.0 | 0.10 | 0.84 | 0.84 | 99 | 1019.5 |
| 20260502105130 | 11 | 225 | 0.0 | 0.0 | 0.15 | 0.79 | 0.79 | 99 | 1019.8 |
| 20260502104230 | 11 | 225 | 0.0 | 6.4 | 0.15 | 0.76 | 0.76 | 99 | 1019.5 |
| 20260502103224 | 11 | 225 | 0.0 | 3.2 | 0.20 | 0.76 | 0.76 | 99 | 1019.3 |
| 20260502102216 | 11 | 225 | 0.0 | 0.0 | 0.25 | 0.76 | 0.76 | 99 | 1019.0 |
| 20260502101209 | 11 | 225 | 0.0 | 0.0 | 0.71 | 0.76 | 0.76 | 99 | 1018.6 |
| 20260502100202 | 10 | 225 | 0.0 | 0.0 | 0.76 | 0.76 | 0.76 | 99 | 1018.7 |
| 20260502090654 | 12 | 180 | 0.0 | 9.7 | 0.05 | 0.05 | 0.05 | 93 | 1019.3 |
| 20260502070643 | 11 | 158 | 0.0 | 3.2 | 0.00 | 0.00 | 0.00 | 99 | 1019.3 |
| 20260502065632 | 11 | 158 | 0.0 | 4.8 | 0.00 | 0.00 | 0.00 | 99 | 1019.3 |
| 20260502064628 | 11 | 158 | 0.0 | 0.0 | 0.00 | 0.00 | 0.00 | 99 | 1019.3 |
| 20260502063622 | 11 | 180 | 0.0 | 3.2 | 0.00 | 0.00 | 0.00 | 99 | 1019.4 |
| 20260502062603 | 11 | 158 | 0.0 | 4.8 | 0.00 | 0.00 | 0.00 | 99 | 1019.2 |
| 20260502061556 | 11 | 158 | 0.0 | 6.4 | 0.00 | 0.00 | 0.00 | 99 | 1019.3 |
| 20260502055544 | 11 | 113 | 0.0 | 0.0 | 0.00 | 0.00 | 0.00 | 99 | 1019.2 |
| 20260502054535 | 11 | 135 | 0.0 | 1.6 | 0.00 | 0.00 | 0.00 | 99 | 1019.2 |
| 20260502053529 | 11 | 135 | 0.0 | 6.4 | 0.00 | 0.00 | 0.00 | 99 | 1019.2 |
| 20260502052522 | 11 | 180 | 0.0 | 4.8 | 0.00 | 0.00 | 0.00 | 99 | 1019.2 |
| 20260502051513 | 11 | 158 | 0.0 | 0.0 | 0.00 | 0.00 | 0.00 | 99 | 1019.2 |
| 20260502045502 | 11 | 158 | 0.0 | 0.0 | 0.00 | 0.00 | 0.00 | 99 | 1019.4 |
| 20260502043445 | 11 | 158 | 0.0 | 4.8 | 0.00 | 0.00 | 0.00 | 99 | 1019.3 |
| 20260502042438 | 11 | 158 | 0.0 | 0.0 | 0.00 | 0.00 | 0.00 | 99 | 1019.2 |
| 20260502041431 | 11 | 113 | 0.0 | 0.0 | 0.00 | 0.00 | 0.00 | 99 | 1019.1 |
| 20260502040424 | 11 | 135 | 0.0 | 0.0 | 0.00 | 0.00 | 0.00 | 99 | 1019.1 |
| 20260502035417 | 11 | 113 | 0.0 | 0.0 | 0.00 | 0.00 | 0.00 | 99 | 1019.1 |
| 20260502034410 | 11 | 90 | 0.0 | 0.0 | 0.00 | 0.00 | 0.00 | 99 | 1019.3 |
| 20260502033402 | 11 | 135 | 0.0 | 0.0 | 0.00 | 0.00 | 0.00 | 99 | 1019.5 |